Skip Page Navigation
NASA JPL Caltech
NASA Logo - Jet Propulsion Laboratory + View the NASA Portal
+ Center for Near-Earth Object Studies
JPL Home Earth Solar System Stars & Galaxies Technology
JPL Solar System Dynamics
BODIES ORBITS EPHEMERIDES TOOLS PHYSICAL DATA DISCOVERY FAQ SITE MAP
JPL Small-Body Database Browser
Search: [ help ]  
10577 Jihcesmuzeum (1995 JC)
Classification: Main-belt Asteroid          SPK-ID: 2010577
Ephemeris | Orbit Diagram | Orbital Elements | Mission Design | Physical Parameters | Discovery Circumstances | Close-Approach Data ]

[ hide orbit diagram ]

For accurate long-term ephemerides, please instead use our Horizons system.This orbit viewer was implemented using two-body methods, and hence should not be used for determining accurate long-term trajectories (over several years or decades) or planetary encounter circumstances.


Orbital Elements at Epoch 2459000.5 (2020-May-31.0) TDB
Reference: JPL 23 (heliocentric ecliptic J2000)
 Element Value Uncertainty (1-sigma)   Units 
e .2279432015665149 3.7138e-08  
a 2.582009715243483 8.4779e-09 au
q 1.993458154275038 9.5395e-08 au
i 4.440917361728375 3.6138e-06 deg
node 46.12082282053608 5.6945e-05 deg
peri 210.2809290886278 5.7492e-05 deg
M 357.1636731073405 8.6931e-06 deg
tp 2459012.439579094913
(2020-Jun-11.93957909)
3.6608e-05 TDB
period 1515.427747518343
4.15
7.4638e-06
2.043e-08
d
yr
n .2375566902411113 1.17e-09 deg/d
Q 3.170561276211928 1.041e-08 au
  Orbit Determination Parameters
   # obs. used (total)      1535  
   data-arc span      9256 days (25.34 yr)  
   first obs. used      1995-05-02  
   last obs. used      2020-09-03  
   planetary ephem.      DE431  
   SB-pert. ephem.      SB431-N16  
   condition code      0  
   norm. resid. RMS      .50045  
   source      ORB  
   producer      Otto Matic  
   solution date      2020-Nov-13 03:05:26  

Additional Information
 Earth MOID = .980177 au 
 Jupiter MOID = 1.89719 au 
 T_jup = 3.383 
[ show covariance matrix ]

Ephemeris | Orbit Diagram | Orbital Elements | Mission Design | Physical Parameters | Discovery Circumstances | Close-Approach Data ]

Physical Parameter Table
Parameter Symbol Value Units Sigma Reference Notes
absolute magnitude H 14.52   n/a E2021B10  

10577 Jihčesmuzeum           Discovered 1995 May 2 by M. Tichy at Klet.
Jihočeské muzeum (The South Bohemian Museum) was established in České Budějovice in 1877. It is well-known for its naturalistic, art, historical and archaeological collections, including moldavites, glass and a horse railway museum. Important are its cultural and scientific roles.
NOTE: some special characters may not display properly (any characters within {} are an attempt to place the proper accent above a character)
Reference: 20050407/MPCPages.arcLast Updated: 2005-04-15

[ show close-approach data ]
Ephemeris | Orbit Diagram | Orbital Elements | Mission Design | Physical Parameters | Discovery Circumstances | Close-Approach Data ]
ABOUT SSD CREDITS/AWARDS PRIVACY/COPYRIGHT GLOSSARY LINKS
FirstGov 2021-Feb-26 13:47 UT
(server date/time)  
NASA Home Page
Site Manager:   Ryan S. Park
Webmaster  Alan B. Chamberlin